TimeHST,TemperatureF,Dew PointF,Humidity,Sea Level PressureIn,VisibilityMPH,Wind Direction,Wind SpeedMPH,Gust SpeedMPH,PrecipitationIn,Events,Conditions,WindDirDegrees,DateUTC
12:53 AM,72.0,57.9,61,29.96,10.0,East,4.6,-,N/A,,Clear,80,2013-01-28 10:53:00
1:53 AM,71.1,57.9,63,29.95,10.0,Calm,Calm,-,N/A,,Clear,0,2013-01-28 11:53:00
2:53 AM,70.0,57.9,65,29.93,10.0,ENE,5.8,-,N/A,,Clear,60,2013-01-28 12:53:00
3:53 AM,70.0,57.9,65,29.92,10.0,East,4.6,-,N/A,,Clear,90,2013-01-28 13:53:00
4:53 AM,70.0,57.9,65,29.92,10.0,East,5.8,-,N/A,,Clear,100,2013-01-28 14:53:00
5:53 AM,73.0,57.9,59,29.92,10.0,ESE,9.2,-,N/A,,Clear,110,2013-01-28 15:53:00
6:53 AM,72.0,57.0,59,29.95,10.0,SE,9.2,-,N/A,,Clear,140,2013-01-28 16:53:00
7:53 AM,73.9,57.9,57,29.96,10.0,East,3.5,-,N/A,,Clear,100,2013-01-28 17:53:00
8:53 AM,77.0,57.9,52,29.97,10.0,Calm,Calm,-,N/A,,Clear,0,2013-01-28 18:53:00
9:53 AM,78.1,59.0,52,29.98,10.0,WNW,4.6,-,N/A,,Clear,300,2013-01-28 19:53:00
10:53 AM,79.0,59.0,50,29.96,10.0,NNW,10.4,-,N/A,,Clear,330,2013-01-28 20:53:00
11:53 AM,79.0,61.0,54,29.94,10.0,WNW,4.6,-,0.00,Rain,Light Rain,290,2013-01-28 21:53:00
12:53 PM,80.1,61.0,52,29.92,10.0,WNW,4.6,-,0.00,,Scattered Clouds,300,2013-01-28 22:53:00
1:53 PM,81.0,60.1,49,29.90,10.0,WNW,6.9,-,N/A,,Clear,290,2013-01-28 23:53:00
2:53 PM,81.0,63.0,54,29.88,10.0,SSW,13.8,-,N/A,,Scattered Clouds,200,2013-01-29 00:53:00
3:53 PM,80.1,62.1,54,29.89,10.0,South,12.7,-,N/A,,Mostly Cloudy,170,2013-01-29 01:53:00
4:53 PM,79.0,62.1,56,29.90,10.0,SSE,10.4,-,N/A,,Overcast,150,2013-01-29 02:53:00
5:53 PM,78.1,64.0,62,29.91,10.0,SSW,12.7,-,N/A,,Mostly Cloudy,200,2013-01-29 03:53:00
6:53 PM,78.1,61.0,56,29.92,10.0,SE,9.2,-,N/A,,Overcast,140,2013-01-29 04:53:00
7:53 PM,77.0,62.1,60,29.94,10.0,SSE,6.9,-,0.00,,Overcast,160,2013-01-29 05:53:00
8:53 PM,77.0,63.0,62,29.95,10.0,Calm,Calm,-,0.00,Rain,Light Rain,0,2013-01-29 06:53:00
9:53 PM,75.9,63.0,64,29.96,10.0,Calm,Calm,-,0.00,,Overcast,0,2013-01-29 07:53:00
10:53 PM,75.9,60.1,58,29.95,10.0,Calm,Calm,-,0.00,Rain,Light Rain,0,2013-01-29 08:53:00
11:53 PM,75.9,61.0,60,29.94,10.0,Calm,Calm,-,0.00,,Overcast,0,2013-01-29 09:53:00